Regional Weather Roundup
Issued by NWS

Home | Current Version | Previous Version | Graphics & Text | Print | Product List | Glossary On
Versions: 1 2 3 4 5 6 7 8 9 10 11 12 13 14 15 16 17 18 19 20 21 22 23 24 25 26 27 28 29 30 31 32 33 34 35 36 37 38 39 40 41 42 43 44 45 46 47 48 49 50
000
ASUS43 KBIS 130131
RWRND
NORTH DAKOTA REGIONAL WEATHER ROUNDUP
NATIONAL WEATHER SERVICE EASTERN NORTH DAKOTA/GRAND FORKS ND
700 PM CST FRI FEB 12 2016

  NOTE: "FAIR" INDICATES FEW OR NO CLOUDS BELOW 12,000 FEET WITH NO
  SIGNIFICANT WEATHER AND/OR OBSTRUCTIONS TO VISIBILITY.

NDZ001>003-009>011-017-130200-
...NORTHWEST NORTH DAKOTA...

CITY           SKY/WX    TMP DP  RH WIND       PRES   REMARKS
WILLISTON      CLOUDY    13   2  61 E9        30.44S WCI   1
MINOT          CLOUDY     2  -8  63 E7        30.53F WCI -11
MINOT AFB      CLOUDY    -3 -12  65 CALM      30.53F
$$

NDZ018>021-031>035-040>046-130200-
...SOUTHWEST NORTH DAKOTA...

CITY           SKY/WX    TMP DP  RH WIND       PRES   REMARKS
BISMARCK       CLOUDY     8  -3  61 E8        30.57F WCI  -4
DICKINSON      CLOUDY    10   2  69 SE13      30.39F WCI  -5
GARRISON         N/A      7  -1  70 E8        30.51F WCI  -6
HETTINGER      CLOUDY    12   1  61 SE14      30.41F WCI  -3
$$

NDZ004>008-012>016-024-026-027-054-130200-
...NORTHEAST NORTH DAKOTA...

CITY           SKY/WX    TMP DP  RH WIND       PRES   REMARKS
GRAND FORKS    CLOUDY    -2 -11  65 NW7       30.67F WCI -15
GRAND FORKS AF CLOUDY    -6 -14  68 NW7       30.67S WCI -21
DEVILS LAKE    CLOUDY   -10 -15  78 CALM      30.62S
$$

NDZ022-023-025-028>030-036>039-047>053-130200-
...SOUTHEAST NORTH DAKOTA...

CITY           SKY/WX    TMP DP  RH WIND       PRES   REMARKS
JAMESTOWN      CLOUDY    -3 -11  68 N5        30.61R WCI -13
FARGO          CLOUDY    -2 -11  65 NW9       30.68S WCI -18
WAHPETON       CLOUDY    -2  -9  71 NW9       30.67S WCI -18
$$



USA.gov is the U.S. government's official web portal to all federal, state and local government web resources and services.